Location: Unspecified
(54.1780°N, 0.0000°E)
Time: 14:32:05
(UTC+00:00)

Explorer 7 - Pass Details

Date: 15 August 2020
Orbit: 485 x 679 km, 50.3° (Epoch: 23 September)

Event Time Altitude Azimuth Distance (km) Brightness Sun altitude
Rises 20:43:54 0° 263° (W) 2,662 11.0 -9.9°
Reaches altitude 10° 20:46:13 10° 257° (WSW) 1,745 9.9 -10.2°
Maximum altitude 20:49:59 47° 184° (S) 670 7.0 -10.6°
Enters shadow 20:52:54 15° 113° (ESE) 1,396 8.3 -10.9°
